Starlink 30223

operational
NORAD ID: 57603 Int'l Des: 2023-119 Owner: SPXS Country: US Constellation: starlink
LEOCIRCULAR

Über Starlink 30223

Beschreibung wird geladen...

Live-Position

3D-Globus wird geladen...

Nächste Überflüge

Höhenverlauf

Altitude vs Time

uPlot chart will show altitude changes over time

Zweizeiliger Elementsatz

1 57603U 23119B 25340.94633096 -.00002378 00000-0 -16096-3 0 9998
2 57603 43.0032 225.6516 0001000 271.2386 88.8341 15.02555495129120
Epoch: 6. Dez. 2025 • Age: 18 hours

Aktueller Status

Höhe 558.2 km
Geschwindigkeit 7.59 km/s
Subsatellitenpunkt 13.18°N, 85.79°W
Startdatum 11. Aug. 2023
Alter 2.3 years
Typ internet

Technische Details

Klassifizierung Payload
Masse 730.00 kg
Trockenmasse 700.00 kg
Gesamtmasse 730.00 kg
Länge 0.30 m
Durchmesser 4.10 m
Spannweite 29.00 m
Form Box + pan
Hersteller SPXS
Bus-Typ Starlink V2M
Phasenstatus In Orbit
Besitzer/Staat SPXS/US

Große Konstellationen

Loading constellations...